KINEIS-3A

Satellite information

Favourite Embed

Satellite Type and Status

PAYLOADIN ORBIT

Key statistics

Satellite KINEIS-3A at a glance.

Uptime

231

Days in orbit

Revolutions

≈ 14.7

Per day

Orbit

SSO

Sun Synchronous Orbit

Inclination

98.0

Latest

Satellite identification and parameters

Extended collection of information and parameters for KINEIS-3A.

Object identification

Identified? True

Debris? False

Object name: KINEIS-3A

International designator: 2024-172D

Object number (NORAD): 61223

Object ID (CCSDS): 61223

Country: FRANCE (FR)

Current information (Y/N): Y

RCS size: MEDIUM

Orbital parameters

Period: 97.799 minutes

Inclination: 98.0237 deg

SMA: 7031.539 km

Apoapsis: 653.963 km

Periapsis: 652.845 km

RAAN: 218.6781 deg

Eccentricy: 0.0000795

Argument of periapsis: 336.6046 deg

Mean anomaly: 23.5125 deg

Mean motion: 14.72404784 rev/day

Mean motion (dot): 0.00003023 rev/day2

B* drag term: 0.0004849 1/REarth

Two-line elements (TLE)

Creation date: May 9, 2025, 2:46 a.m.

Reference frame: TEME

Reference center: EARTH

Epoch: May 8, 2025, 7:08 p.m. UTC

TLE line 0: 0 KINEIS-3A

TLE line 1: 1 61223U 24172D 25128.79731087 .00003023 00000-0 48490-3 0 9996

TLE line 2: 2 61223 98.0237 218.6781 0000795 336.6046 23.5125 14.72404784 33271

Live tracking on map

Real-time ground track for satellite KINEIS-3A.

In-orbit conjunctions

There are no conjunctions computed for KINEIS-3A, at the moment. Check back to stay up to date, as we update our databases every day.

Go to all conjunctions

Associated space launch

Second batch of five satellites for the French Kinéis IoT constellation designed to operate with 25 nanosatellites of 30 kg each.

KINEIS-3A was lifted into orbit during the mission ‘Electron | Kinéis Killed the RadIoT Star (Kinéis 6-10)’, on board a Electron space rocket.

The launch took place on Sept. 20, 2024, 11:01 p.m. from Rocket Lab Launch Complex 1A.

For more information about the launch, click the button.

Launch to space Electron | Kinéis Killed the RadIoT Star (Kinéis 6-10)
Electron | Kinéis Killed the RadIoT Star (Kinéis 6-10)

Agency: Kinéis

Status: Launch Successful

Launch date: Sept. 20, 2024, 11:01 p.m. UTC

Rocket: Electron

Launch pad: Rocket Lab Launch Complex 1A

Location: Rocket Lab Launch Complex 1, Mahia Peninsula, New Zealand

...

Latest news about this satellite

News about space launch
Electron launches second set of Kinéis satellites

An Electron launched a second set of satellites for French startup Kinéis Sept. 20, putting that company on track to begin offering Internet of Things services.

News about space launch
Rocket Lab launches 5 Internet of Things satellites following mid-week scrub

The mission will be the 53rd launch of an Electron rocket to date. Liftoff from Launch Complex 1 Pad A happened on Sept. 21 at 11:01 a.m. NZST (Sept. 20 at 7:01 p.m. EDT, 2301 UTC).

News about space launch
Launch Roundup: Falcon 9 and Electron to extend satellite constellations

This week’s manifest includes the delayed launches of a Falcon 9 with Galileo global positioning satellites and an Electron with a second batch of satellites for Kinéis. SpaceX will also launch one batch of Starlink satellites from California as the const...


Newsletter sign-up

Weekly statistics, charts and insights to help you stay on top of the space industry.